This is the latest recevied weather packets stored in our database for station/object DC4AT. If no packets are shown the sender has not sent any weather packets the latest 10 day(s).
| Time | Temp. | Humidity | Pressure | Rain* | Wind** | Luminosity | Snow |
|---|---|---|---|---|---|---|---|
| 1787553468 | 10° C | 83% | 1024.3 hPa | 0 mm | - | 113 W/m² | - |
| 1787552868 | 10° C | 82% | 1024.2 hPa | 0 mm | - | 204 W/m² | - |
| 1787552268 | 9.44° C | 82% | 1024.2 hPa | 0 mm | - | 183 W/m² | - |
| 1787551668 | 8.89° C | 81% | 1024.2 hPa | 0 mm | - | 160 W/m² | - |
| 1787551068 | 8.89° C | 82% | 1024.2 hPa | 0 mm | - | 137 W/m² | - |
| 1787550468 | 8.33° C | 82% | 1024.2 hPa | 0 mm | - | 116 W/m² | - |
| 1787549868 | 8.33° C | 81% | 1024.1 hPa | 0 mm | - | 95 W/m² | - |
| 1787549268 | 7.78° C | 82% | 1024.2 hPa | 0 mm | - | 54 W/m² | - |
| 1787548668 | 7.22° C | 83% | 1024.2 hPa | 0 mm | - | 23 W/m² | - |
| 1787548068 | 7.22° C | 83% | 1024.2 hPa | 0 mm | - | 19 W/m² | - |
| 1787547468 | 7.22° C | 83% | 1024.1 hPa | 0 mm | - | 14 W/m² | - |
| 1787546868 | 7.22° C | 84% | 1024 hPa | 0 mm | - | 11 W/m² | - |
| 1787546268 | 7.22° C | 84% | 1024.2 hPa | 0 mm | - | 9 W/m² | - |
| 1787545668 | 7.22° C | 85% | 1024.3 hPa | 0 mm | - | 0 W/m² | - |
| 1787545068 | 7.22° C | 85% | 1024.2 hPa | 0 mm | - | 0 W/m² | - |
| 1787544468 | 7.22° C | 85% | 1024.3 hPa | 0 mm | - | 0 W/m² | - |
| 1787543868 | 7.78° C | 85% | 1024.3 hPa | 0 mm | - | 0 W/m² | - |
| 1787543268 | 7.78° C | 85% | 1024 hPa | 0 mm | - | 0 W/m² | - |
| 1787542668 | 7.78° C | 85% | 1024.1 hPa | 0 mm | - | 0 W/m² | - |
| 1787542068 | 8.33° C | 85% | 1023.9 hPa | 0 mm | - | 0 W/m² | - |
| 1787541468 | 8.33° C | 85% | 1023.8 hPa | 0 mm | - | 0 W/m² | - |
| 1787540868 | 8.33° C | 86% | 1023.8 hPa | 0 mm | - | 0 W/m² | - |
| 1787540268 | 8.33° C | 86% | 1023.8 hPa | 0 mm | - | 0 W/m² | - |
| 1787539668 | 8.33° C | 86% | 1023.7 hPa | 0 mm | - | 0 W/m² | - |
| 1787539068 | 8.89° C | 86% | 1023.6 hPa | 0 mm | - | 0 W/m² | - |
* Rain latest hour (hover to see other rain measurements)
** Current wind speed in m/s (hover to see current wind gust speed)